• Join FlightAware (Why Join?)
  • Login
  • US Flag 
11:31PM EST


 

Airport Tracker/Info


-or-


 

Live Flight TrackerFlight Track Log ✈ N5101S ✈ 01-Jul-2013 ✈ KIWS - KJAN

Flight Track Log - Related Links

Times and Time Zones

All times are in EDT time to prevent confusion due to time zone crossing. See the N5101S flight status page for this flight to view local times or setup timezone preferences in your user account.

Time Position Orientation Groundspeed Altitude Reporting Facility
EDT Latitude Longitude Course Direction KTS MPH feet Rate Location/Type
11:14AM 30.3433 -93.8450 56° Northeast 125 144 7,400  Level Houston Center
11:15AM 30.3631 -93.8114 56° Northeast 126 145 7,400  Level Houston Center
11:16AM 30.3825 -93.7767 57° Northeast 126 145 7,400  Level Houston Center
11:17AM 30.4022 -93.7431 56° Northeast 127 146 7,400  Level Houston Center
11:18AM 30.4219 -93.7089 56° Northeast 127 146 7,400  Level Houston Center
11:19AM 30.4414 -93.6747 57° Northeast 126 145 7,400  Level Houston Center
11:20AM 30.4647 -93.6339 56° Northeast 125 144 7,400  Level Houston Center
11:21AM 30.4836 -93.5997 57° Northeast 125 144 7,400  Level Houston Center
11:22AM 30.5031 -93.5661 56° Northeast 124 143 7,400  Level Houston Center
11:23AM 30.5222 -93.5325 56° Northeast 123 142 7,400  Level Houston Center
11:24AM 30.5447 -93.4919 57° Northeast 123 142 7,400  Level Houston Center
11:25AM 30.5600 -93.4661 56° Northeast 125 144 7,400  Level Houston Center
11:26AM 30.5828 -93.4256 57° Northeast 124 143 7,400  Level Houston Center
11:27AM 30.6028 -93.3919 55° Northeast 125 144 7,400  Level Houston Center
11:28AM 30.6206 -93.3603 57° Northeast 127 146 7,400  Level Houston Center
11:29AM 30.6411 -93.3236 57° Northeast 125 144 7,400  Level Houston Center
11:30AM 30.6606 -93.2894 57° Northeast 126 145 7,400  Level Houston Center
11:31AM 30.6792 -93.2561 57° Northeast 128 147 7,400  Level Houston Center
11:32AM 30.6981 -93.2231 56° Northeast 129 148 7,400  Level Houston Center
11:33AM 30.7231 -93.1797 56° Northeast 127 146 7,400  Level Houston Center
11:34AM 30.7414 -93.1450 58° Northeast 126 145 7,400  Level Houston Center
11:35AM 30.7622 -93.1086 56° Northeast 127 146 7,400  Level Houston Center
11:36AM 30.7811 -93.0756 56° Northeast 129 148 7,400  Level Houston Center
11:38AM 30.8036 -93.0372 56° Northeast 128 147 7,400  Level Houston Center
11:39AM 30.8236 -93.0006 58° Northeast 127 146 7,400  Level Houston Center
11:40AM 30.8414 -92.9711 55° Northeast 123 142 7,400  Level Houston Center
11:41AM 30.8594 -92.9356 59° Northeast 126 145 7,400  Level Houston Center
11:41AM 30.8753 -92.9097 54° Northeast 129 148 7,400  Level Houston Center
11:42AM 30.8939 -92.8742 59° Northeast 130 150 7,400  Level Houston Center
11:44AM 30.9233 -92.8231 56° Northeast 130 150 7,400  Level Houston Center
11:45AM 30.9408 -92.7925 56° Northeast 131 151 7,400  Level Houston Center
11:45AM 30.9558 -92.7669 56° Northeast 132 152 7,400  Level Houston Center
11:46AM 30.9633 -92.7522 59° Northeast 130 150 7,400  Level Houston Center
11:46AM 30.9767 -92.7311 54° Northeast 130 150 7,400  Level Houston Center
11:47AM 30.9825 -92.7169 64° Northeast 129 148 7,400  Level Houston Center
11:48AM 31.0072 -92.6744 56° Northeast 131 151 7,400  Level Houston Center
11:49AM 31.0261 -92.6400 57° Northeast 129 148 7,400  Level Houston Center
11:50AM 31.0453 -92.6044 58° Northeast 130 150 7,400  Level Houston Center
11:51AM 31.0650 -92.5700 56° Northeast 128 147 7,400  Level Houston Center
11:52AM 31.0836 -92.5358 58° Northeast 126 145 7,400  Level Houston Center
11:53AM 31.1033 -92.5019 56° Northeast 127 146 7,400  Level Houston Center
11:54AM 31.1169 -92.4778 57° Northeast 127 146 7,400  Level Houston Center
11:55AM 31.1375 -92.4417 56° Northeast 128 147 7,400  Level Houston Center
11:55AM 31.1450 -92.4261 61° Northeast 127 146 7,400  Level Houston Center
11:56AM 31.1644 -92.3919 56° Northeast 127 146 7,400  Level Houston Center
11:57AM 31.1828 -92.3564 59° Northeast 127 146 7,400  Level Houston Center
11:58AM 31.2067 -92.3156 56° Northeast 128 147 7,400  Level Houston Center
11:59AM 31.2250 -92.2803 59° Northeast 129 148 7,400  Level Houston Center
12:00PM 31.2439 -92.2492 55° Northeast 125 144 7,400  Level Houston Center
12:01PM 31.2644 -92.2131 56° Northeast 126 145 7,400  Level Houston Center
12:02PM 31.2831 -92.1797 57° Northeast 127 146 7,400  Level Houston Center
12:03PM 31.3017 -92.1439 59° Northeast 127 146 7,400  Level Houston Center
12:04PM 31.3181 -92.1128 58° Northeast 124 143 7,400  Level Houston Center
12:05PM 31.3386 -92.0767 56° Northeast 126 145 7,400  Level Houston Center
12:07PM 31.3619 -92.0356 56° Northeast 125 144 7,400  Level Houston Center
12:07PM 31.3778 -92.0072 57° Northeast 129 148 7,400  Level Houston Center
12:08PM 31.3964 -91.9736 57° Northeast 128 147 7,400  Level Houston Center
12:10PM 31.4236 -91.9231 58° Northeast 128 147 7,400  Level Houston Center
12:12PM 31.4619 -91.8539 57° Northeast 127 146 7,400  Level Houston Center
12:13PM 31.4811 -91.8183 58° Northeast 128 147 7,400  Level Houston Center
12:14PM 31.4997 -91.7828 58° Northeast 128 147 7,400  Level Houston Center
12:16PM 31.5422 -91.7061 57° Northeast 128 147 7,400  Level Houston Center
12:17PM 31.5614 -91.6708 57° Northeast 128 147 7,400  Level Houston Center
12:18PM 31.5817 -91.6358 56° Northeast 129 148 7,400  Level Houston Center
12:19PM 31.6014 -91.6003 57° Northeast 130 150 7,400  Level Houston Center
12:20PM 31.6211 -91.5644 57° Northeast 130 150 7,400  Level Houston Center
12:22PM 31.6628 -91.4864 58° Northeast 129 148 7,400  Level Houston Center
12:23PM 31.6819 -91.4508 58° Northeast 129 148 7,400  Level Houston Center
12:24PM 31.6997 -91.4142 60° Northeast 130 150 7,500  Climbing Houston Center
12:25PM 31.7200 -91.3772 57° Northeast 131 151 7,400 -60 Descending Houston Center
12:26PM 31.7400 -91.3419 56° Northeast 131 151 7,400  Level Houston Center
12:28PM 31.7847 -91.2631 56° Northeast 132 152 7,400  Level Houston Center
12:29PM 31.8047 -91.2269 57° Northeast 133 153 7,400  Level Houston Center
12:30PM 31.8244 -91.1900 58° Northeast 133 153 7,400  Level Houston Center
12:31PM 31.8419 -91.1536 60° Northeast 131 151 7,400  Level Houston Center
12:32PM 31.8600 -91.1156 61° Northeast 132 152 7,400  Level Houston Center
12:33PM 31.8844 -91.0711 57° Northeast 134 154 7,400  Level Houston Center
12:34PM 31.9031 -91.0344 59° Northeast 133 153 7,400  Level Houston Center
12:36PM 31.9244 -90.9983 55° Northeast 133 153 7,400  Level Houston Center
12:37PM 31.9442 -90.9606 58° Northeast 134 154 7,400  Level Houston Center
12:38PM 31.9636 -90.9242 58° Northeast 134 154 7,400  Level Houston Center
12:39PM 31.9853 -90.8792 60° Northeast 132 152 7,400  Level Houston Center
12:40PM 32.0042 -90.8422 59° Northeast 132 152 7,400  Level Houston Center
12:42PM 32.0444 -90.7694 57° Northeast 132 152 7,400  Level Houston Center
12:43PM 32.0656 -90.7325 56° Northeast 134 154 7,400  Level Houston Center